Location: Colebrook
(42.0017°N, 73.0973°W)
Time: 15:35:54
(UTC-05:00)

Vanguard 2 - Pass Details

Date: 01 November 2021
Orbit: 554 x 2936 km, 32.9° (Epoch: 04 December)

Event Time Altitude Azimuth Distance (km) Brightness Sun altitude
Rises 21:27:42 0° 211° (SSW) 6,521 12.4 -41.3°
Reaches altitude 10° 21:32:38 10° 202° (SSW) 5,664 11.9 -42.2°
Enters shadow 21:39:53 25° 182° (S) 4,626 11.2 -43.4°
